Погода в Ашхабаде

Погода в Ашхабаде : погода сейчас, прогноз погоды и архив. Всё, что Вы хотите узнать о погоде в Ашхабаде!

Поиск расширенной информации на нашем сайте:

Полезная информация:

Другие новости

Новости СМИ2

Главная страница сайта

Новости сайта

03.07.2017

Напоминаем, что на нашем специализированном сайте Метеоцентр.Азия вы можете получить высокодетализированные автоматические прогнозы погоды по пунктам России, СНГ и мира в авиационном формате (включающие направление и скорость ветра, видимость, явления погоды, количество и форму облачности, нижнюю и верхнюю границу облачности).

Рекомендуем:

Погода в Ашхабаде - сегодня

Время (UTC), дата Ветер
(°,м/с) 
Видим.   Явления Облачность Т
(°С)
Тd
(°С)
f(%) Тe
(°С)
Pmin
(гПа)
dP
(гПа)
Po
(мм)
O2
(г/м3)
Тmin Tmax R s Состояние
почвы
09 15.09.19 120 (ЮВ) 10 км    ясно 
+29 +4.1 20 +29  1018.7  -1.4  746  271           
12 15.09.19 130 (ЮВ) 10 км    ясно 
+29.4 +5 21 +29  1017.6  -1.1  745  270           
15 15.09.19 140 (ЮВ) 10 км    ясно 
+27.6 +5.5 24 +28  1017.1  -0.6  745  272    +29.4       
18 15.09.19 160 (Ю) 10 км    ясно 
+23.5 +7.8 37 +24  1017.9  0.5  745  275    +29.4       
21 15.09.19 080 (В) 10 км    ясно 
+20.5 +6.7 41 +21  1017.6  -0.5  745  278           
00 16.09.19 тихо ()   10 км    ясно 
+18.3 +6.4 46 +18  1018.3  0.4  745  280           
03 16.09.19 190 (Ю) 10 км    ясно 
+18.1 +5.1 42 +19  1019.8  1.4  746  281  +16.5        сухая 
06 16.09.19 360 (С) 10 км    ясно 
+26.4 +7 29 +26  1020.3  1.3  747  273  +16.5         
09 16.09.19 140 (ЮВ) 10 км    ясно 
+30.2 +5.3 21 +30  1019  -1.1  746  270           
12 16.09.19 100 (В) 10 км    1/0 верхняя 
[Ci fib]
+31 +4.8 19 +31  1017.1  -1.7  745  269           
15 16.09.19 130 (ЮВ) 10 км    ясно 
+29.2 +5.9 23 +29  1016.8  -0.5  745  270    +31       
18 16.09.19 120 (ЮВ) 10 км    ясно 
+25.6 +2.3 22 +26  1016.7  -0.4  745  274    +31       
21 16.09.19 110 (В) 10 км    ясно 
+22.8 +5.6 33 +23  1014.8  -2  743  275           
00 17.09.19 120 (ЮВ) 10 км    ясно 
+20.4 +6.2 40 +20  1019.3  -1.1  742  277           
03 17.09.19 110 (В) 10 км    ясно 
+20.8 +3.4 32 +21  1013.9  742  277  +19        сухая 
06 17.09.19 110 (В) 11  4000 м  пыльный позёмок  ясно 
+28.4 +1.5 18 +28  1013.4  0.1  742  271  +19         
09 17.09.19 100 (В) 10  4000 м  пыльный позёмок  ясно 
+33.4 +2.9 15 +33  1010.3  -2.6  740  265           
12 17.09.19 100 (В) 10 км    ясно 
+34.6 +2.7 13 +35  1008.2  -2  739  264           
15 17.09.19 100 (В) 10 км    ясно 
+29.4 +4.3 20 +29  1008.8  0.2  739  268    +34.6       
18 17.09.19 120 (ЮВ) 10 км    ясно 
+23.2 +4.5 30 +23  1008.8  -0.4  739  274    +34.6       
21 17.09.19 110 (В) 10 км    ясно 
+20.4 +5.1 37 +20  1008.4  -0.7  738  276           
00 18.09.19 150 (ЮВ) 10 км    ясно 
+19.5 +6.5 43 +21  1007.1  -1.3  737  276           
03 18.09.19 300 (СЗ) 10 км    ясно 
+23.2 +6.5 34 +23  1007.9  1.1  738  273  +19.2        сухая 
06 18.09.19 320 (СЗ) 10  10 км    4/0 средняя 
[Ac trans]
+28.8 +8.1 27 +29  1009.8  2.3  740  268  +19.2         
09 18.09.19 300 (СЗ) 10 км    6/3 1500 м средняя, верхняя 
[Sc|Ac trans|Ci fib]
+31 +8.9 25 +31  1011.7  741  267           
Время (UTC), дата Ветер
(°,м/с) 
Видим.   Явления Облачность Т
(°С)
Тd
(°С)
f(%) Тe
(°С)
Pmin
(гПа)
dP
(гПа)
Po
(мм)
O2
(г/м3)
Тmin Tmax R s Состояние
почвы

Для получения пояснительной информации подведите курсор к названию столбца.

ПОГОДА в Ашхабаде - архив

Всё, что Вы хотите узнать о погоде в Ашхабаде - удобно и подробно!

Выберите нужную дату (начиная с 1 января 2018* года) и нажмите кнопку "Найти".
Будут отображены архивные сводки погоды по пункту Ашхабад, начиная с указанной даты.


Отображать данные в формате CSV (для использования в таблицах Excel)


Внимание! Наш архив погоды предназначен исключительно для личного некоммерческого использования в познавательных целях. Если Вам необходимы официальные справки о состоянии погоды (для производственных, юридических, коммерческих и т.п. целей), обращайтесь в органы Росгидромета.

*Примечание: данная дата относится к архиву по метеостанциям СССР (Россия, СНГ, Балтия).
Архив по метеостанциям Зарубежной Европы и Азии (кроме Китая) хранится 10 дней, по другим регионам земного шара (Китай, Африка, Америка, Австралия, Океания) - 1 день.

Ашхабад - район местоположения метеостанции


Название, широта, долгота, высота метеостанции:
Ашхабад (город) 38°ш. 58.3°д. 208 м над ур. моря [Туркменистан]

Дополнительная информация

В oтличие oт бoльшинства пoгoдных сайтoв мы публикуем пoдрoбную метеoинфoрмацию в детальнoм прoфессиoнальнoм фoрмате.

Характеристики температуры и влажнoсти вoздуха измеряются на высoте 2 м в тени вдали oт зданий и деревьев.
Скoрoсть ветра измеряется на высoте 10 м (на урoвне рoста челoвека скoрoсть ветра ниже в 1.5-2 раза). Если метеoстанция нахoдится в гoрoде или в лесу, тo скoрoсть ветра занижена на 2-4 м/с пo сравнению с oткрытым местoм. Скoрoсть ветра над акватoриями крупных рек и oзёр, а также на вершинах хoлмoв на 2-5 м/с выше, чем в oбычных услoвиях.
Атмoсфернoе давление в разных тoчках местнoсти мoжет значительнo oтличаться oт давления на метеoстанции, в зависимoсти oт услoвий рельефа (при пoдъёме на 10 м давление пoнижается примернo на 1 мм рт.ст.).